| time (UTC) | temp C | wind direction | speed KPH | gust KPH | rain 1hr cm | rain 24hr cm | rain mn cm | humidity % | barometer mb |
| 20260504110531 | 9 | 188 | 4.8 | 9.7 | 0.00 | 0.00 | 0.00 | 63 | 1014.6 |
| 20260504100526 | 9 | 184 | 6.4 | 11.3 | 0.00 | 0.00 | 0.00 | 59 | 1014.6 |
| 20260504081552 | 8 | 176 | 3.2 | 4.8 | 0.00 | 0.00 | 0.00 | 52 | 1015.0 |
| 20260504081030 | 8 | 197 | 1.6 | 3.2 | 0.00 | 0.00 | 0.00 | 51 | 1015.1 |
| 20260504080530 | 8 | 187 | 1.6 | 3.2 | 0.00 | 0.00 | 0.00 | 51 | 1015.0 |
| 20260504050534 | 7 | 191 | 3.2 | 6.4 | 0.00 | 0.00 | 0.00 | 58 | 1015.6 |
| 20260504045529 | 6 | 203 | 3.2 | 6.4 | 0.00 | 0.00 | 0.00 | 60 | 1015.6 |
| 20260504045029 | 7 | 183 | 3.2 | 4.8 | 0.00 | 0.00 | 0.00 | 61 | 1015.5 |
| 20260504044545 | 7 | 202 | 1.6 | 4.8 | 0.00 | 0.00 | 0.00 | 59 | 1015.5 |
| 20260504044029 | 6 | 195 | 3.2 | 4.8 | 0.00 | 0.00 | 0.00 | 60 | 1015.6 |
| 20260504043529 | 6 | 188 | 3.2 | 4.8 | 0.00 | 0.00 | 0.00 | 64 | 1015.7 |
| 20260504043043 | 5 | 182 | 1.6 | 3.2 | 0.00 | 0.00 | 0.00 | 65 | 1015.5 |
| 20260504042530 | 5 | 189 | 1.6 | 3.2 | 0.00 | 0.00 | 0.00 | 68 | 1015.4 |
| 20260504042031 | 5 | 196 | 1.6 | 4.8 | 0.00 | 0.00 | 0.00 | 67 | 1015.3 |
| 20260504041541 | 5 | 189 | 1.6 | 4.8 | 0.00 | 0.00 | 0.00 | 70 | 1015.2 |
| 20260504041031 | 5 | 140 | 1.6 | 3.2 | 0.00 | 0.00 | 0.00 | 73 | 1015.3 |
| 20260504040530 | 5 | 0 | 0.0 | 1.6 | 0.00 | 0.00 | 0.00 | 68 | 1015.2 |
| 20260504040044 | 5 | 140 | 1.6 | 1.6 | 0.00 | 0.00 | 0.00 | 70 | 1015.2 |
| 20260504035533 | 5 | 140 | 1.6 | 3.2 | 0.00 | 0.00 | 0.00 | 68 | 1015.1 |
| 20260504035030 | 5 | 140 | 3.2 | 3.2 | 0.00 | 0.00 | 0.00 | 69 | 1015.2 |
| 20260504034544 | 6 | 63 | 0.0 | 3.2 | 0.00 | 0.00 | 0.00 | 72 | 1015.1 |
| 20260504034029 | 6 | 0 | 0.0 | 3.2 | 0.00 | 0.00 | 0.00 | 72 | 1015.1 |
| 20260504033529 | 6 | 0 | 0.0 | 4.8 | 0.00 | 0.00 | 0.00 | 69 | 1015.1 |
| 20260504033048 | 6 | 39 | 3.2 | 4.8 | 0.00 | 0.00 | 0.00 | 68 | 1015.1 |
| 20260504032530 | 7 | 45 | 0.0 | 3.2 | 0.00 | 0.00 | 0.00 | 57 | 1015.1 |
| 20260504032030 | 7 | 173 | 1.6 | 1.6 | 0.00 | 0.00 | 0.00 | 60 | 1015.2 |
| 20260504031541 | 7 | 173 | 0.0 | 1.6 | 0.00 | 0.00 | 0.00 | 59 | 1015.2 |
| 20260504031030 | 6 | 173 | 0.0 | 1.6 | 0.00 | 0.00 | 0.00 | 60 | 1015.1 |
| 20260504030530 | 6 | 173 | 1.6 | 3.2 | 0.00 | 0.00 | 0.00 | 65 | 1015.1 |
| 20260504030041 | 6 | 173 | 1.6 | 3.2 | 0.00 | 0.00 | 0.00 | 66 | 1015.1 |
| 20260504025530 | 6 | 0 | 0.0 | 1.6 | 0.00 | 0.00 | 0.00 | 60 | 1015.0 |
| 20260504025030 | 6 | 173 | 1.6 | 1.6 | 0.00 | 0.00 | 0.00 | 62 | 1015.0 |
| 20260504024553 | 6 | 173 | 1.6 | 1.6 | 0.00 | 0.00 | 0.00 | 68 | 1015.1 |
| 20260504024029 | 6 | 173 | 1.6 | 3.2 | 0.00 | 0.00 | 0.00 | 66 | 1015.1 |
| 20260504023530 | 6 | 173 | 1.6 | 1.6 | 0.00 | 0.00 | 0.00 | 64 | 1015.0 |
| 20260504023038 | 6 | 173 | 0.0 | 0.0 | 0.00 | 0.00 | 0.00 | 60 | 1015.0 |
| 20260504022530 | 6 | 0 | 0.0 | 3.2 | 0.00 | 0.00 | 0.00 | 60 | 1015.0 |
| 20260504022029 | 6 | 0 | 0.0 | 3.2 | 0.00 | 0.00 | 0.00 | 63 | 1015.0 |
| 20260504021551 | 7 | 173 | 0.0 | 3.2 | 0.00 | 0.00 | 0.00 | 63 | 1015.0 |
| 20260504021029 | 7 | 173 | 0.0 | 3.2 | 0.00 | 0.00 | 0.00 | 61 | 1015.0 |
| 20260504020529 | 7 | 173 | 0.0 | 3.2 | 0.00 | 0.00 | 0.00 | 60 | 1014.9 |
| 20260504020048 | 7 | 0 | 0.0 | 3.2 | 0.00 | 0.00 | 0.00 | 57 | 1014.8 |
| 20260504015529 | 7 | 173 | 1.6 | 1.6 | 0.00 | 0.00 | 0.00 | 57 | 1014.9 |
| 20260504015027 | 7 | 173 | 1.6 | 1.6 | 0.00 | 0.00 | 0.00 | 58 | 1014.8 |
| 20260504014540 | 7 | 173 | 1.6 | 1.6 | 0.00 | 0.00 | 0.00 | 60 | 1014.8 |
| 20260504014030 | 7 | 173 | 1.6 | 1.6 | 0.00 | 0.00 | 0.00 | 60 | 1014.8 |
| 20260504013529 | 7 | 173 | 0.0 | 3.2 | 0.00 | 0.00 | 0.00 | 60 | 1014.9 |
| 20260504013047 | 7 | 173 | 1.6 | 3.2 | 0.00 | 0.00 | 0.00 | 59 | 1015.0 |
| 20260504012530 | 7 | 173 | 1.6 | 4.8 | 0.00 | 0.00 | 0.00 | 59 | 1014.9 |
| 20260504012029 | 8 | 173 | 3.2 | 4.8 | 0.00 | 0.00 | 0.00 | 58 | 1014.7 |
| 20260504011541 | 8 | 287 | 0.0 | 3.2 | 0.00 | 0.00 | 0.00 | 58 | 1014.7 |
| 20260504011029 | 8 | 287 | 1.6 | 3.2 | 0.00 | 0.00 | 0.00 | 55 | 1014.6 |
| 20260504010529 | 8 | 287 | 1.6 | 1.6 | 0.00 | 0.00 | 0.00 | 55 | 1014.6 |
| 20260504010038 | 9 | 287 | 0.0 | 1.6 | 0.00 | 0.00 | 0.00 | 54 | 1014.5 |
| 20260504005530 | 9 | 287 | 1.6 | 1.6 | 0.00 | 0.00 | 0.00 | 53 | 1014.4 |
| 20260504005030 | 9 | 287 | 1.6 | 3.2 | 0.00 | 0.00 | 0.00 | 55 | 1014.4 |
| 20260504004559 | 10 | 287 | 1.6 | 3.2 | 0.00 | 0.00 | 0.00 | 52 | 1014.4 |
| 20260504004030 | 10 | 287 | 1.6 | 3.2 | 0.00 | 0.00 | 0.00 | 49 | 1014.4 |
| 20260504003529 | 10 | 287 | 1.6 | 3.2 | 0.00 | 0.00 | 0.00 | 47 | 1014.4 |
| 20260504003040 | 10 | 287 | 0.0 | 3.2 | 0.00 | 0.00 | 0.00 | 46 | 1014.4 |
| 20260504002529 | 10 | 287 | 0.0 | 3.2 | 0.00 | 0.00 | 0.00 | 46 | 1014.4 |
| 20260504002026 | 11 | 287 | 1.6 | 3.2 | 0.00 | 0.00 | 0.00 | 45 | 1014.4 |
| 20260504001546 | 11 | 287 | 1.6 | 3.2 | 0.00 | 0.00 | 0.00 | 46 | 1014.3 |
| 20260504001030 | 11 | 287 | 0.0 | 3.2 | 0.00 | 0.00 | 0.00 | 44 | 1014.2 |
| 20260504000530 | 12 | 287 | 0.0 | 3.2 | 0.00 | 0.00 | 0.00 | 40 | 1014.2 |
| 20260504000044 | 12 | 287 | 0.0 | 6.4 | 0.00 | 0.00 | 0.00 | 39 | 1014.1 |
| 20260503235530 | 13 | 287 | 0.0 | 6.4 | 0.00 | 0.00 | 0.00 | 36 | 1014.1 |
| 20260503235031 | 13 | 30 | 1.6 | 6.4 | 0.00 | 0.00 | 0.00 | 35 | 1014.0 |
| 20260503234540 | 13 | 0 | 0.0 | 4.8 | 0.00 | 0.00 | 0.00 | 35 | 1014.1 |
| 20260503234030 | 13 | 238 | 1.6 | 9.7 | 0.00 | 0.00 | 0.00 | 34 | 1014.1 |
| 20260503233529 | 14 | 228 | 3.2 | 11.3 | 0.00 | 0.00 | 0.00 | 34 | 1014.1 |
| 20260503233045 | 14 | 303 | 4.8 | 11.3 | 0.00 | 0.00 | 0.00 | 35 | 1014.1 |
| 20260503232530 | 14 | 0 | 3.2 | 6.4 | 0.00 | 0.00 | 0.00 | 35 | 1014.1 |
| 20260503232029 | 15 | 240 | 4.8 | 8.0 | 0.00 | 0.00 | 0.00 | 33 | 1014.0 |
| 20260503231540 | 15 | 252 | 3.2 | 14.5 | 0.00 | 0.00 | 0.00 | 33 | 1013.9 |
| 20260503231031 | 15 | 321 | 6.4 | 14.5 | 0.00 | 0.00 | 0.00 | 33 | 1013.8 |
| 20260503230530 | 15 | 260 | 3.2 | 11.3 | 0.00 | 0.00 | 0.00 | 33 | 1013.8 |
| 20260503230045 | 15 | 296 | 1.6 | 19.3 | 0.00 | 0.00 | 0.00 | 34 | 1013.8 |
| 20260503225530 | 15 | 332 | 8.0 | 19.3 | 0.00 | 0.00 | 0.00 | 33 | 1013.8 |
| 20260503225030 | 15 | 306 | 11.3 | 19.3 | 0.00 | 0.00 | 0.00 | 32 | 1013.8 |
| 20260503224542 | 15 | 239 | 3.2 | 17.7 | 0.00 | 0.00 | 0.00 | 32 | 1013.8 |
| 20260503224030 | 15 | 286 | 8.0 | 19.3 | 0.00 | 0.00 | 0.00 | 32 | 1014.0 |
| 20260503223531 | 15 | 310 | 6.4 | 20.9 | 0.00 | 0.00 | 0.00 | 31 | 1014.0 |
| 20260503223041 | 15 | 222 | 14.5 | 29.0 | 0.00 | 0.00 | 0.00 | 31 | 1014.0 |
| 20260503222529 | 15 | 257 | 11.3 | 29.0 | 0.00 | 0.00 | 0.00 | 32 | 1014.1 |
| 20260503222030 | 15 | 280 | 14.5 | 25.7 | 0.00 | 0.00 | 0.00 | 32 | 1014.0 |
| 20260503221539 | 15 | 284 | 11.3 | 24.1 | 0.00 | 0.00 | 0.00 | 32 | 1013.9 |
| 20260503221034 | 15 | 277 | 11.3 | 24.1 | 0.00 | 0.00 | 0.00 | 33 | 1013.9 |
| 20260503220530 | 14 | 223 | 8.0 | 16.1 | 0.00 | 0.00 | 0.00 | 32 | 1014.0 |
| 20260503220040 | 14 | 303 | 8.0 | 24.1 | 0.00 | 0.00 | 0.00 | 32 | 1013.9 |
| 20260503215529 | 14 | 240 | 8.0 | 29.0 | 0.00 | 0.00 | 0.00 | 32 | 1014.1 |
| 20260503215029 | 14 | 234 | 19.3 | 29.0 | 0.00 | 0.00 | 0.00 | 32 | 1014.1 |
| 20260503214541 | 15 | 247 | 11.3 | 24.1 | 0.00 | 0.00 | 0.00 | 31 | 1014.0 |
| 20260503214029 | 15 | 271 | 8.0 | 22.5 | 0.00 | 0.00 | 0.00 | 34 | 1014.0 |
| 20260503213529 | 15 | 259 | 14.5 | 22.5 | 0.00 | 0.00 | 0.00 | 32 | 1014.0 |
| 20260503213043 | 15 | 306 | 11.3 | 30.6 | 0.00 | 0.00 | 0.00 | 32 | 1013.9 |
| 20260503212528 | 15 | 244 | 11.3 | 30.6 | 0.00 | 0.00 | 0.00 | 30 | 1014.1 |
| 20260503212030 | 15 | 295 | 9.7 | 27.4 | 0.00 | 0.00 | 0.00 | 31 | 1014.0 |
| 20260503211544 | 15 | 188 | 14.5 | 25.7 | 0.00 | 0.00 | 0.00 | 31 | 1014.0 |
| 20260503211030 | 15 | 302 | 12.9 | 29.0 | 0.00 | 0.00 | 0.00 | 31 | 1014.1 |
| 20260503210530 | 14 | 338 | 14.5 | 29.0 | 0.00 | 0.00 | 0.00 | 33 | 1014.0 |
| 20260503210040 | 14 | 338 | 11.3 | 27.4 | 0.00 | 0.00 | 0.00 | 32 | 1014.1 |
| 20260503205533 | 14 | 296 | 19.3 | 32.2 | 0.00 | 0.00 | 0.00 | 31 | 1014.1 |
| 20260503205030 | 14 | 273 | 12.9 | 32.2 | 0.00 | 0.00 | 0.00 | 31 | 1014.1 |
| 20260503204539 | 14 | 271 | 17.7 | 32.2 | 0.00 | 0.00 | 0.00 | 31 | 1014.1 |
| 20260503204030 | 14 | 343 | 9.7 | 27.4 | 0.00 | 0.00 | 0.00 | 32 | 1013.9 |
| 20260503203531 | 14 | 279 | 16.1 | 30.6 | 0.00 | 0.00 | 0.00 | 33 | 1014.0 |
| 20260503203047 | 14 | 315 | 17.7 | 30.6 | 0.00 | 0.00 | 0.00 | 31 | 1014.1 |
| 20260503202530 | 15 | 270 | 6.4 | 29.0 | 0.00 | 0.00 | 0.00 | 33 | 1014.0 |
| 20260503202034 | 14 | 286 | 17.7 | 29.0 | 0.00 | 0.00 | 0.00 | 32 | 1014.0 |
| 20260503201538 | 13 | 308 | 6.4 | 27.4 | 0.00 | 0.00 | 0.00 | 32 | 1014.2 |
| 20260503201027 | 14 | 252 | 16.1 | 27.4 | 0.00 | 0.00 | 0.00 | 31 | 1014.3 |
| 20260503200529 | 14 | 297 | 9.7 | 35.4 | 0.00 | 0.00 | 0.00 | 31 | 1014.2 |
| 20260503200047 | 13 | 202 | 12.9 | 35.4 | 0.00 | 0.00 | 0.00 | 32 | 1014.1 |
| 20260503195530 | 13 | 304 | 17.7 | 35.4 | 0.00 | 0.00 | 0.00 | 32 | 1014.3 |
| 20260503195030 | 13 | 311 | 16.1 | 33.8 | 0.00 | 0.00 | 0.00 | 32 | 1014.4 |
| 20260503194545 | 13 | 294 | 17.7 | 29.0 | 0.00 | 0.00 | 0.00 | 32 | 1014.6 |
| 20260503194032 | 13 | 308 | 11.3 | 29.0 | 0.00 | 0.00 | 0.00 | 34 | 1014.6 |
| 20260503193530 | 13 | 305 | 14.5 | 29.0 | 0.00 | 0.00 | 0.00 | 31 | 1014.7 |
| 20260503193043 | 13 | 280 | 14.5 | 30.6 | 0.00 | 0.00 | 0.00 | 33 | 1014.5 |
| 20260503192530 | 13 | 313 | 11.3 | 30.6 | 0.00 | 0.00 | 0.00 | 32 | 1014.7 |
| 20260503192030 | 13 | 276 | 12.9 | 32.2 | 0.00 | 0.00 | 0.00 | 33 | 1014.7 |
| 20260503191540 | 13 | 265 | 9.7 | 38.6 | 0.00 | 0.00 | 0.00 | 33 | 1014.9 |
| 20260503191032 | 13 | 304 | 16.1 | 38.6 | 0.00 | 0.00 | 0.00 | 33 | 1014.9 |
| 20260503190530 | 13 | 293 | 20.9 | 33.8 | 0.00 | 0.00 | 0.00 | 32 | 1014.9 |
| 20260503190043 | 13 | 352 | 11.3 | 25.7 | 0.00 | 0.00 | 0.00 | 35 | 1014.8 |
| 20260503185529 | 13 | 242 | 11.3 | 29.0 | 0.00 | 0.00 | 0.00 | 34 | 1014.8 |
| 20260503185031 | 13 | 256 | 14.5 | 29.0 | 0.00 | 0.00 | 0.00 | 34 | 1014.9 |
| 20260503184547 | 13 | 277 | 11.3 | 32.2 | 0.00 | 0.00 | 0.00 | 36 | 1015.2 |
| 20260503184030 | 12 | 257 | 9.7 | 33.8 | 0.00 | 0.00 | 0.00 | 34 | 1015.2 |
| 20260503183531 | 12 | 300 | 14.5 | 33.8 | 0.00 | 0.00 | 0.00 | 35 | 1015.1 |
| 20260503183044 | 12 | 240 | 16.1 | 29.0 | 0.00 | 0.00 | 0.00 | 35 | 1015.3 |
| 20260503182538 | 12 | 319 | 14.5 | 30.6 | 0.00 | 0.00 | 0.00 | 37 | 1015.3 |
| 20260503182031 | 12 | 277 | 14.5 | 30.6 | 0.00 | 0.00 | 0.00 | 37 | 1015.4 |
| 20260503181544 | 12 | 352 | 14.5 | 30.6 | 0.00 | 0.00 | 0.00 | 37 | 1015.4 |
| 20260503181027 | 12 | 328 | 16.1 | 30.6 | 0.00 | 0.00 | 0.00 | 36 | 1015.4 |
| 20260503180527 | 12 | 270 | 9.7 | 30.6 | 0.00 | 0.00 | 0.00 | 39 | 1015.5 |
| 20260503180041 | 12 | 292 | 14.5 | 30.6 | 0.00 | 0.00 | 0.00 | 36 | 1015.5 |
| 20260503175527 | 12 | 259 | 12.9 | 30.6 | 0.00 | 0.00 | 0.00 | 38 | 1015.6 |
| 20260503175030 | 12 | 302 | 9.7 | 27.4 | 0.00 | 0.00 | 0.00 | 40 | 1015.4 |
| 20260503174559 | 12 | 169 | 4.8 | 27.4 | 0.00 | 0.00 | 0.00 | 38 | 1015.5 |
| 20260503174034 | 12 | 260 | 14.5 | 27.4 | 0.00 | 0.00 | 0.00 | 40 | 1015.4 |
| 20260503173530 | 12 | 298 | 9.7 | 24.1 | 0.00 | 0.00 | 0.00 | 40 | 1015.6 |
| 20260503173041 | 11 | 310 | 12.9 | 38.6 | 0.00 | 0.00 | 0.00 | 39 | 1015.6 |
| 20260503172527 | 11 | 283 | 17.7 | 38.6 | 0.00 | 0.00 | 0.00 | 39 | 1015.7 |
| 20260503172032 | 11 | 257 | 24.1 | 38.6 | 0.00 | 0.00 | 0.00 | 39 | 1015.7 |
| 20260503171537 | 11 | 279 | 12.9 | 24.1 | 0.00 | 0.00 | 0.00 | 41 | 1015.7 |
| 20260503171028 | 11 | 301 | 9.7 | 38.6 | 0.00 | 0.00 | 0.00 | 41 | 1015.8 |
| 20260503170530 | 11 | 294 | 14.5 | 38.6 | 0.00 | 0.00 | 0.00 | 40 | 1015.7 |
| 20260503150531 | 8 | 319 | 22.5 | 35.4 | 0.00 | 0.00 | 0.00 | 43 | 1016.6 |
| 20260503131032 | 6 | 324 | 17.7 | 29.0 | 0.00 | 0.00 | 0.00 | 53 | 1016.8 |
| 20260503130530 | 6 | 286 | 16.1 | 30.6 | 0.00 | 0.00 | 0.00 | 55 | 1016.6 |